McAlester, OK

3:12 AM CDT on September 30, 2016 (GMT -0500)
McAlester Regional

Weather History for KMLC - April, 2013

Change the Weather History Date:

Sunday, April 28, 2013

  Actual Average Record
Temperature  
Mean Temperature 64 °F -  
Max Temperature 81 °F 74 °F 88 °F (1989)
Min Temperature 48 °F 52 °F 34 °F (1979)
Growing Degree Days 14 (Base 50)    
Moisture  
Dew Point 54 °F    
Average Humidity 74    
Maximum Humidity 100    
Minimum Humidity 39    
Precipitation  
Precipitation 0.00 in - - ()
Sea Level Pressure  
Sea Level Pressure 29.96 in    
Wind  
Wind Speed 2 mph (SSW)    
Max Wind Speed 6 mph    
Max Gust Speed -    
Visibility 10 miles    
Events      
Averages and records for this station are not official NWS values.
T = Trace of Precipitation, MM = Missing Value Source: NWS Daily Summary

Daily Weather History Graph

Daily Weather History Graph

Search for Another Location

Airport or City:

Trip Planner

Search our weather history database for the weather conditions in past years. The results will help you decide how hot, cold, wet, or windy it might be!

Date:

Astronomy

Apr. 28, 2013 Rise Set
Actual Time 6:35 AM CDT 8:06 PM CDT
Civil Twilight 6:08 AM CDT 8:33 PM CDT
Nautical Twilight 5:36 AM CDT 9:05 PM CDT
Astronomical Twilight 5:02 AM CDT 9:39 PM CDT
Moon 11:33 PM CDT (4/28) 8:57 AM CDT (4/28)
Length of Visible Light 14h 24m
Length of Day
13h 30m
Waning Gibbous, 88% of the Moon is Illuminated
Apr 28
Waning Gibbous
May 2
Last Quarter
May 9
New
May 17
First Quarter
May 24
Full

Hourly Weather History & Observations

Time (CDT) Temp. Heat Index Dew Point Humidity Pressure Visibility Wind Dir Wind Speed Gust Speed Precip Events Conditions
12:53 AM 57.0 °F - 53.1 °F 87% 30.04 in 10.0 mi Calm Calm - N/A   Overcast
1:53 AM 55.0 °F - 53.1 °F 93% 30.03 in 10.0 mi Variable 3.5 mph - N/A   Overcast
2:53 AM 55.0 °F - 53.1 °F 93% 30.02 in 10.0 mi Calm Calm - N/A   Overcast
3:53 AM 53.1 °F - 52.0 °F 96% 30.02 in 10.0 mi Calm Calm - N/A   Mostly Cloudy
4:08 AM 51.8 °F - 51.8 °F 100% 30.03 in 10.0 mi Calm Calm - N/A   Overcast
4:53 AM 52.0 °F - 52.0 °F 100% 30.03 in 10.0 mi Calm Calm - N/A   Mostly Cloudy
5:09 AM 53.6 °F - 51.8 °F 94% 30.03 in 10.0 mi Calm Calm - N/A   Scattered Clouds
5:53 AM 51.1 °F - 51.1 °F 100% 30.02 in 10.0 mi Calm Calm - N/A   Clear
6:53 AM 48.0 °F - 48.0 °F 100% 30.03 in 7.0 mi Calm Calm - N/A   Clear
7:53 AM 51.8 °F - 51.8 °F 100% 30.05 in 10.0 mi Calm Calm - N/A   Clear
8:53 AM 57.0 °F - 52.0 °F 83% 30.05 in 10.0 mi Calm Calm - N/A   Partly Cloudy
9:53 AM 60.1 °F - 53.1 °F 78% 30.03 in 10.0 mi Calm Calm - N/A   Clear
10:53 AM 64.0 °F - 55.0 °F 73% 30.01 in 10.0 mi Calm Calm - N/A   Scattered Clouds
11:53 AM 69.1 °F - 57.0 °F 65% 30.00 in 10.0 mi Variable 4.6 mph - N/A   Partly Cloudy
12:53 PM 72.0 °F - 57.9 °F 61% 29.97 in 10.0 mi Variable 4.6 mph - N/A   Scattered Clouds
1:53 PM 73.9 °F - 55.9 °F 53% 29.95 in 10.0 mi Variable 3.5 mph - N/A   Scattered Clouds
2:53 PM 77.0 °F - 55.0 °F 47% 29.92 in 10.0 mi WSW 5.8 mph - N/A   Clear
3:53 PM 79.0 °F - 57.9 °F 48% 29.89 in 10.0 mi Variable 4.6 mph - N/A   Clear
4:53 PM 80.1 °F 80.2 °F 55.9 °F 43% 29.87 in 10.0 mi SW 5.8 mph - N/A   Clear
5:53 PM 81.0 °F 80.5 °F 54.0 °F 39% 29.86 in 10.0 mi Calm Calm - N/A   Clear
6:53 PM 80.1 °F 80.0 °F 54.0 °F 40% 29.85 in 10.0 mi Calm Calm - N/A   Clear
7:53 PM 75.0 °F - 57.0 °F 53% 29.86 in 10.0 mi South 4.6 mph - N/A   Clear
8:53 PM 71.1 °F - 57.0 °F 61% 29.87 in 10.0 mi South 5.8 mph - N/A   Scattered Clouds
9:53 PM 66.9 °F - 57.0 °F 70% 29.89 in 10.0 mi South 4.6 mph - N/A   Clear
10:53 PM 62.1 °F - 57.9 °F 86% 29.89 in 10.0 mi SSW 4.6 mph - N/A   Mostly Cloudy
11:53 PM 66.0 °F - 57.0 °F 73% 29.87 in 10.0 mi South 5.8 mph - N/A   Mostly Cloudy